Powrót do katalogu

STARLINK-5673

AktywnyŁącznośćVLEO
NORAD 55462·PAYLOAD·🇺🇸 United States

Wystrzelony Feb 2, 2023 z Cape Canaveral Space Force Station

Loading…

Następne Przeloty (najbliższe 24 godziny)

TLE

ŚwieżeSource: CelesTrak SupGP

Epoka: Sep 15, 2026, 02:29 UTC

1 55462C 23015P   26258.10395833  .00028670  00000+0  10385-2 0  2587
2 55462  43.0016 338.7995 0001547 267.2905  68.1311 15.27562484    15

Śledź STARLINK-5673 w czasie rzeczywistym z AllMySat

Download on the App Store